Time,TemperatureF,DewpointF,PressureIn,WindDirection,WindDirectionDegrees,WindSpeedMPH,WindSpeedGustMPH,Humidity,HourlyPrecipIn,Conditions,Clouds,dailyrainin,SoftwareType,DateUTC
2013-02-16 00:10:00,44.0,39.0,0.00,NNW,333,3.4,4.6,82,0.00,,,0.00,WUHU216CR1000,2013-02-16 08:10:00,
2013-02-16 00:15:00,44.0,39.0,0.00,NNW,333,3.4,4.6,82,0.00,,,0.00,WUHU216CR1000,2013-02-16 08:15:00,
2013-02-16 00:40:00,43.5,38.7,0.00,NNW,334,1.0,2.8,83,0.00,,,0.00,WUHU216CR1000,2013-02-16 08:40:00,
2013-02-16 00:45:00,43.5,38.7,0.00,NNW,334,1.0,2.8,83,0.00,,,0.00,WUHU216CR1000,2013-02-16 08:45:00,
2013-02-16 01:10:00,42.4,38.6,0.00,NNW,330,1.5,4.6,86,0.00,,,0.00,WUHU216CR1000,2013-02-16 09:10:00,
2013-02-16 01:15:00,42.4,38.6,0.00,NNW,330,1.5,4.6,86,0.00,,,0.00,WUHU216CR1000,2013-02-16 09:15:00,
2013-02-16 01:40:00,42.8,38.4,0.00,NNW,328,2.8,4.6,84,0.00,,,0.00,WUHU216CR1000,2013-02-16 09:40:00,
2013-02-16 01:45:00,42.8,38.4,0.00,NNW,328,2.8,4.6,84,0.00,,,0.00,WUHU216CR1000,2013-02-16 09:45:00,
2013-02-16 02:10:00,42.5,38.9,0.00,NNW,331,3.3,4.6,87,0.00,,,0.00,WUHU216CR1000,2013-02-16 10:10:00,
2013-02-16 02:15:00,42.5,38.9,0.00,NNW,331,3.3,4.6,87,0.00,,,0.00,WUHU216CR1000,2013-02-16 10:15:00,
2013-02-16 02:40:00,41.2,38.3,0.00,NW,322,2.0,4.6,89,0.00,,,0.00,WUHU216CR1000,2013-02-16 10:40:00,
2013-02-16 02:45:00,41.2,38.3,0.00,NW,322,2.0,4.6,89,0.00,,,0.00,WUHU216CR1000,2013-02-16 10:45:00,
2013-02-16 03:02:00,41.6,37.9,0.00,NNW,327,2.5,4.6,87,0.00,,,0.00,WUHU216CR1000,2013-02-16 11:02:00,
2013-02-16 03:07:00,41.6,37.9,0.00,NNW,327,2.5,4.6,87,0.00,,,0.00,WUHU216CR1000,2013-02-16 11:07:00,
2013-02-16 03:12:00,41.6,37.9,0.00,NNW,327,2.5,4.6,87,0.00,,,0.00,WUHU216CR1000,2013-02-16 11:12:00,
2013-02-16 03:17:00,42.0,38.3,0.00,WNW,300,2.6,4.6,87,0.00,,,0.00,WUHU216CR1000,2013-02-16 11:17:00,
2013-02-16 03:22:00,42.0,38.3,0.00,WNW,300,2.6,4.6,87,0.00,,,0.00,WUHU216CR1000,2013-02-16 11:22:00,
2013-02-16 03:32:00,42.4,38.2,0.00,NW,320,3.0,4.6,85,0.00,,,0.00,WUHU216CR1000,2013-02-16 11:32:00,
2013-02-16 03:37:00,42.4,38.2,0.00,NW,320,3.0,4.6,85,0.00,,,0.00,WUHU216CR1000,2013-02-16 11:37:00,
2013-02-16 03:42:00,42.4,38.2,0.00,NW,320,3.0,4.6,85,0.00,,,0.00,WUHU216CR1000,2013-02-16 11:42:00,
2013-02-16 03:47:00,42.4,38.2,0.00,NW,320,3.0,4.6,85,0.00,,,0.00,WUHU216CR1000,2013-02-16 11:47:00,
2013-02-16 03:52:00,42.3,37.6,0.00,NW,319,0.8,4.6,83,0.00,,,0.00,WUHU216CR1000,2013-02-16 11:52:00,
2013-02-16 03:57:00,42.3,37.6,0.00,NW,319,0.8,4.6,83,0.00,,,0.00,WUHU216CR1000,2013-02-16 11:57:00,
2013-02-16 04:02:00,40.7,36.6,0.00,WSW,258,0.5,2.8,85,0.00,,,0.00,WUHU216CR1000,2013-02-16 12:02:00,
2013-02-16 04:07:00,40.7,36.6,0.00,WSW,258,0.5,2.8,85,0.00,,,0.00,WUHU216CR1000,2013-02-16 12:07:00,
2013-02-16 04:12:00,40.7,36.6,0.00,WSW,258,0.5,2.8,85,0.00,,,0.00,WUHU216CR1000,2013-02-16 12:12:00,
2013-02-16 04:17:00,40.6,36.9,0.00,NW,305,1.3,4.6,86,0.00,,,0.00,WUHU216CR1000,2013-02-16 12:17:00,
2013-02-16 04:22:00,40.6,36.9,0.00,NW,305,1.3,4.6,86,0.00,,,0.00,WUHU216CR1000,2013-02-16 12:22:00,
2013-02-16 04:32:00,40.3,37.1,0.00,NW,323,2.3,4.6,88,0.00,,,0.00,WUHU216CR1000,2013-02-16 12:32:00,
2013-02-16 04:37:00,40.3,37.1,0.00,NW,323,2.3,4.6,88,0.00,,,0.00,WUHU216CR1000,2013-02-16 12:37:00,
2013-02-16 04:42:00,40.3,37.1,0.00,NW,323,2.3,4.6,88,0.00,,,0.00,WUHU216CR1000,2013-02-16 12:42:00,
2013-02-16 04:47:00,40.4,37.6,0.00,NW,323,3.1,4.6,90,0.00,,,0.00,WUHU216CR1000,2013-02-16 12:47:00,
2013-02-16 04:52:00,40.4,37.6,0.00,NW,323,3.1,4.6,90,0.00,,,0.00,WUHU216CR1000,2013-02-16 12:52:00,
2013-02-16 05:02:00,40.2,37.2,0.00,NNW,335,2.0,4.6,89,0.00,,,0.00,WUHU216CR1000,2013-02-16 13:02:00,
2013-02-16 05:07:00,40.2,37.2,0.00,NNW,335,2.0,4.6,89,0.00,,,0.00,WUHU216CR1000,2013-02-16 13:07:00,
2013-02-16 05:12:00,40.2,37.2,0.00,NNW,335,2.0,4.6,89,0.00,,,0.00,WUHU216CR1000,2013-02-16 13:12:00,
2013-02-16 05:17:00,39.8,36.7,0.00,NW,325,1.5,4.6,89,0.00,,,0.00,WUHU216CR1000,2013-02-16 13:17:00,
2013-02-16 05:22:00,39.8,36.7,0.00,NW,325,1.5,4.6,89,0.00,,,0.00,WUHU216CR1000,2013-02-16 13:22:00,
2013-02-16 05:32:00,39.5,36.6,0.00,WNW,297,0.2,2.8,89,0.00,,,0.00,WUHU216CR1000,2013-02-16 13:32:00,
2013-02-16 05:37:00,39.5,36.6,0.00,WNW,297,0.2,2.8,89,0.00,,,0.00,WUHU216CR1000,2013-02-16 13:37:00,
2013-02-16 05:42:00,39.5,36.6,0.00,WNW,297,0.2,2.8,89,0.00,,,0.00,WUHU216CR1000,2013-02-16 13:42:00,
2013-02-16 05:47:00,39.5,36.8,0.00,NW,311,1.4,4.6,90,0.00,,,0.00,WUHU216CR1000,2013-02-16 13:47:00,
2013-02-16 05:52:00,39.5,36.8,0.00,NW,311,1.4,4.6,90,0.00,,,0.00,WUHU216CR1000,2013-02-16 13:52:00,
2013-02-16 05:57:00,39.5,36.8,0.00,NW,311,1.4,4.6,90,0.00,,,0.00,WUHU216CR1000,2013-02-16 13:57:00,
2013-02-16 06:02:00,39.5,36.8,0.00,NW,306,2.2,4.6,90,0.00,,,0.00,WUHU216CR1000,2013-02-16 14:02:00,
2013-02-16 06:07:00,39.5,36.8,0.00,NW,306,2.2,4.6,90,0.00,,,0.00,WUHU216CR1000,2013-02-16 14:07:00,
2013-02-16 06:12:00,39.5,36.8,0.00,NW,306,2.2,4.6,90,0.00,,,0.00,WUHU216CR1000,2013-02-16 14:12:00,
2013-02-16 06:17:00,39.3,36.6,0.00,NNW,335,2.3,4.6,90,0.00,,,0.00,WUHU216CR1000,2013-02-16 14:17:00,
2013-02-16 06:22:00,39.3,36.6,0.00,NNW,335,2.3,4.6,90,0.00,,,0.00,WUHU216CR1000,2013-02-16 14:22:00,
2013-02-16 06:32:00,38.7,36.0,0.00,NNW,329,0.7,2.8,90,0.00,,,0.00,WUHU216CR1000,2013-02-16 14:32:00,
2013-02-16 06:37:00,38.7,36.0,0.00,NNW,329,0.7,2.8,90,0.00,,,0.00,WUHU216CR1000,2013-02-16 14:37:00,
2013-02-16 06:42:00,38.7,36.0,0.00,NNW,329,0.7,2.8,90,0.00,,,0.00,WUHU216CR1000,2013-02-16 14:42:00,
2013-02-16 06:47:00,37.9,35.6,0.00,NW,305,1.3,2.8,91,0.00,,,0.00,WUHU216CR1000,2013-02-16 14:47:00,
2013-02-16 06:52:00,37.9,35.6,0.00,NW,305,1.3,2.8,91,0.00,,,0.00,WUHU216CR1000,2013-02-16 14:52:00,
2013-02-16 07:02:00,38.0,36.0,0.00,NW,324,0.8,4.6,92,0.00,,,0.00,WUHU216CR1000,2013-02-16 15:02:00,
2013-02-16 07:07:00,38.0,36.0,0.00,NW,324,0.8,4.6,92,0.00,,,0.00,WUHU216CR1000,2013-02-16 15:07:00,
2013-02-16 07:12:00,38.0,36.0,0.00,NW,324,0.8,4.6,92,0.00,,,0.00,WUHU216CR1000,2013-02-16 15:12:00,
2013-02-16 07:17:00,38.4,36.3,0.00,NW,306,2.3,4.6,92,0.00,,,0.00,WUHU216CR1000,2013-02-16 15:17:00,
2013-02-16 07:22:00,38.4,36.3,0.00,NW,306,2.3,4.6,92,0.00,,,0.00,WUHU216CR1000,2013-02-16 15:22:00,
2013-02-16 07:32:00,38.6,36.5,0.00,NNW,331,1.5,4.6,92,0.00,,,0.00,WUHU216CR1000,2013-02-16 15:32:00,
2013-02-16 07:37:00,38.6,36.5,0.00,NNW,331,1.5,4.6,92,0.00,,,0.00,WUHU216CR1000,2013-02-16 15:37:00,
2013-02-16 07:42:00,38.6,36.5,0.00,NNW,331,1.5,4.6,92,0.00,,,0.00,WUHU216CR1000,2013-02-16 15:42:00,
2013-02-16 07:47:00,39.9,37.5,0.00,NNW,336,1.7,4.6,91,0.00,,,0.00,WUHU216CR1000,2013-02-16 15:47:00,
2013-02-16 07:52:00,39.9,37.5,0.00,NNW,336,1.7,4.6,91,0.00,,,0.00,WUHU216CR1000,2013-02-16 15:52:00,
2013-02-16 08:02:00,40.9,38.1,0.00,NNW,348,1.8,2.8,90,0.00,,,0.00,WUHU216CR1000,2013-02-16 16:02:00,
2013-02-16 08:07:00,40.9,38.1,0.00,NNW,348,1.8,2.8,90,0.00,,,0.00,WUHU216CR1000,2013-02-16 16:07:00,
2013-02-16 08:12:00,40.9,38.1,0.00,NNW,348,1.8,2.8,90,0.00,,,0.00,WUHU216CR1000,2013-02-16 16:12:00,
2013-02-16 08:17:00,42.5,39.7,0.00,NNW,339,1.3,2.8,90,0.00,,,0.00,WUHU216CR1000,2013-02-16 16:17:00,
2013-02-16 08:22:00,42.5,39.7,0.00,NNW,339,1.3,2.8,90,0.00,,,0.00,WUHU216CR1000,2013-02-16 16:22:00,
2013-02-16 08:32:00,44.9,41.5,0.00,NNW,338,0.2,2.8,88,0.00,,,0.00,WUHU216CR1000,2013-02-16 16:32:00,
2013-02-16 08:37:00,44.9,41.5,0.00,NNW,338,0.2,2.8,88,0.00,,,0.00,WUHU216CR1000,2013-02-16 16:37:00,
2013-02-16 08:42:00,44.9,41.5,0.00,NNW,338,0.2,2.8,88,0.00,,,0.00,WUHU216CR1000,2013-02-16 16:42:00,
2013-02-16 08:47:00,47.6,42.8,0.00,East,88,0.2,2.8,83,0.00,,,0.00,WUHU216CR1000,2013-02-16 16:47:00,
2013-02-16 08:52:00,47.6,42.8,0.00,East,88,0.2,2.8,83,0.00,,,0.00,WUHU216CR1000,2013-02-16 16:52:00,
2013-02-16 09:02:00,49.7,43.8,0.00,SW,223,0.0,2.8,80,0.00,,,0.00,WUHU216CR1000,2013-02-16 17:02:00,
2013-02-16 09:07:00,49.7,43.8,0.00,SW,223,0.0,2.8,80,0.00,,,0.00,WUHU216CR1000,2013-02-16 17:07:00,
2013-02-16 09:12:00,49.7,43.8,0.00,SW,223,0.0,2.8,80,0.00,,,0.00,WUHU216CR1000,2013-02-16 17:12:00,
2013-02-16 09:17:00,52.6,43.6,0.00,ENE,74,0.4,2.8,71,0.00,,,0.00,WUHU216CR1000,2013-02-16 17:17:00,
2013-02-16 09:22:00,52.6,43.6,0.00,ENE,74,0.4,2.8,71,0.00,,,0.00,WUHU216CR1000,2013-02-16 17:22:00,
2013-02-16 09:32:00,53.1,43.3,0.00,NE,41,0.9,2.8,69,0.00,,,0.00,WUHU216CR1000,2013-02-16 17:32:00,
2013-02-16 09:37:00,53.1,43.3,0.00,NE,41,0.9,2.8,69,0.00,,,0.00,WUHU216CR1000,2013-02-16 17:37:00,
2013-02-16 09:42:00,53.1,43.3,0.00,NE,41,0.9,2.8,69,0.00,,,0.00,WUHU216CR1000,2013-02-16 17:42:00,
2013-02-16 09:47:00,53.7,42.5,0.00,NNW,340,0.3,2.8,66,0.00,,,0.00,WUHU216CR1000,2013-02-16 17:47:00,
2013-02-16 09:52:00,53.7,42.5,0.00,NNW,340,0.3,2.8,66,0.00,,,0.00,WUHU216CR1000,2013-02-16 17:52:00,
2013-02-16 10:02:00,55.3,42.6,0.00,ESE,105,1.2,4.6,62,0.00,,,0.00,WUHU216CR1000,2013-02-16 18:02:00,
2013-02-16 10:07:00,55.3,42.6,0.00,ESE,105,1.2,4.6,62,0.00,,,0.00,WUHU216CR1000,2013-02-16 18:07:00,
2013-02-16 10:12:00,55.3,42.6,0.00,ESE,105,1.2,4.6,62,0.00,,,0.00,WUHU216CR1000,2013-02-16 18:12:00,
2013-02-16 10:17:00,55.7,42.9,0.00,SE,134,2.4,6.4,62,0.00,,,0.00,WUHU216CR1000,2013-02-16 18:17:00,
2013-02-16 10:22:00,55.7,42.9,0.00,SE,134,2.4,6.4,62,0.00,,,0.00,WUHU216CR1000,2013-02-16 18:22:00,
2013-02-16 10:32:00,57.3,43.5,0.00,SSE,148,2.1,6.4,60,0.00,,,0.00,WUHU216CR1000,2013-02-16 18:32:00,
2013-02-16 10:37:00,57.3,43.5,0.00,SSE,148,2.1,6.4,60,0.00,,,0.00,WUHU216CR1000,2013-02-16 18:37:00,
2013-02-16 10:42:00,57.3,43.5,0.00,SSE,148,2.1,6.4,60,0.00,,,0.00,WUHU216CR1000,2013-02-16 18:42:00,
2013-02-16 10:47:00,59.0,43.9,0.00,SE,132,1.7,6.4,57,0.00,,,0.00,WUHU216CR1000,2013-02-16 18:47:00,
2013-02-16 10:52:00,59.0,43.9,0.00,SE,132,1.7,6.4,57,0.00,,,0.00,WUHU216CR1000,2013-02-16 18:52:00,
2013-02-16 10:57:00,59.0,43.9,0.00,SE,132,1.7,6.4,57,0.00,,,0.00,WUHU216CR1000,2013-02-16 18:57:00,
2013-02-16 11:02:00,59.5,44.5,0.00,East,97,3.0,6.4,57,0.00,,,0.00,WUHU216CR1000,2013-02-16 19:02:00,
2013-02-16 11:07:00,59.5,44.5,0.00,East,97,3.0,6.4,57,0.00,,,0.00,WUHU216CR1000,2013-02-16 19:07:00,
2013-02-16 11:12:00,59.5,44.5,0.00,East,97,3.0,6.4,57,0.00,,,0.00,WUHU216CR1000,2013-02-16 19:12:00,
2013-02-16 11:17:00,59.5,44.5,0.00,East,97,3.0,6.4,57,0.00,,,0.00,WUHU216CR1000,2013-02-16 19:17:00,